DECAYED

STARLINK-1130, 44932 (Decayed)

Orbit data source: Space-Track

STARLINK-1130, 44932 was a payload satellite owned by SpaceX/Seattle (US) in LEO that was launched on Tue, 07 Jan 2020 UTC via an FALCON 9 launch vehicle from the Air Force Eastern Test Range (AFETR). Payload-class satellites include a variety of spacecraft equipped with specific instruments for various scientific and technological missions. These include communications satellites like Starlink; space stations such as the ISS; scientific satellites like the Hubble; Earth observation satellites from companies like Planet Labs, Umbra, and HawkEye 360; GPS; miniature CubeSats for education and research; and military/defense satellites.

Not visible in the next 10 days
Identifier
44932, 2020-001U
Orbit
Decayed
Country
Flag of USUS
Related business
Manufacturer
SpaceX/Seattle
Mission
Decayed Commercial Communications
Bus & Motor
STARLINK, Unknown motor
Mass
260 kg wet, ~248 kg dry
Launch date (UTC)
2020-01-07 (6 years ago)
Launch vehicle
FALCON 9
Launch site
Air Force Eastern Test Range (AFETR)
Object type
Payload
Rocket body
Debris
Shape & HBR
Box + 1 Pan, 10.1 m
Radar Cross Section
13.562 m², Large (>1 m²)

Expand to show TLE details & history
Last TLE update: 4 months ago

TLE from 4 months ago
0 STARLINK-1130
1 44932U 20001U   25201.41009700  .14655795  12573-4  24213-3 0  9995
2 44932  53.0225 196.8709 0004882 264.2908 267.1656 16.47864835307638
Epoch: 2025-07-20T09:50Z
TLE epoch observation values (Epoch: 2025-07-20T09:50:32.380Z)
Latitude
6.82138°
Longitude
-74.33484°
Altitude
145.423 km
Speed
7.821 km/s
True Right ascension
00h 46m 55s
True Declination
6° 46' 38"
Sunlit
Object was in full shadow at epoch
Visualization orbit readout
Latitude
Unknown
Longitude
Unknown
Altitude
Unknown
Speed
Unknown
Apparent Right ascension
Unknown
Apparent Declination
Unknown
Sunlit
N/A
Visualization observer readout
Local Sidereal Time
18:16:10
Azimuth
Unknown
Elevation
Unknown
Doppler factor
Unknown
Orbital elements
Apogee altitude
148.441 km
Perigee altitude
142.072 km
Semi-major axis
6,523.394 km
Eccentricity
0.00049
Inclination
53.0225°
RAAN
196.8709°
Arg. of periapsis
264.2908°
True anomaly
267.10973°
Mean anomaly
267.1656°
Eccentric anomaly
267.13766°
Mean motion
4.11939 °/min
Orbital period
87.39 mins
BSTAR
0.00024213
Loading maneuver chart data...
Computing Atmospheric mass density...

Documentation

Showing up to 5 results
|